カタログに戻る

THOR ABLESTAR DEB

運用中LEO
NORAD 334·DEBRIS·🇺🇸 United States

打ち上げ Jun 29, 1961 から Cape Canaveral Space Force Station

Loading…

次のパス (今後24時間)

TLE

最新Source: Space-Track

元期: Sep 14, 2026, 11:13 UTC

1 00334U 61015DL  26257.46748284 -.00000019  00000-0  44025-4 0  9998
2 00334  66.9257 326.7756 0075174  33.8139 326.7702 13.91758106308485

AllMySatでTHOR ABLESTAR DEBをリアルタイム追跡

Download on the App Store